KI5NYZ-13 Weather Reports


time (UTC)temp
F
wind
direction
speed
knots
gust
knots
rain 1hr
in
rain 24hr
in
rain mn
in
humidity
%
barometer
mb
20260902061210 77 183 0.0 0.0 0.00 0.36 0.00 46 1012.0
20260902054209 78 156 0.0 0.0 0.00 0.36 0.00 44 1011.5
20260902051208 78 166 0.0 0.0 0.00 0.36 0.00 44 1011.5
20260902044207 80 146 0.0 1.7 0.00 0.36 0.36 42 1011.4
20260902041206 80 178 0.0 1.7 0.00 0.36 0.36 41 1011.3
20260902034205 80 148 0.0 1.7 0.00 0.36 0.36 41 1011.0
20260902031204 80 70 0.0 0.0 0.00 0.36 0.36 40 1010.6
20260902024203 82 186 0.0 1.7 0.00 0.36 0.36 40 1009.7
20260902021202 84 360 0.0 0.0 0.00 0.36 0.36 37 1008.8
20260902014202 87 179 0.0 2.6 0.00 0.36 0.36 34 1008.2
20260902011200 90 182 0.0 3.5 0.00 0.36 0.36 32 1007.3
20260902004159 93 176 0.9 3.5 0.00 0.37 0.36 29 1006.6
20260902001159 95 180 3.5 7.0 0.01 0.37 0.36 27 1006.1
20260901234157 96 174 0.9 5.2 0.02 0.39 0.35 26 1005.9
20260901231157 95 178 1.7 7.8 0.03 0.41 0.34 27 1006.0
20260901224155 95 186 1.7 6.1 0.04 0.42 0.33 27 1006.1
20260901221154 97 179 2.6 8.7 0.04 0.41 0.30 27 1005.9
20260901214154 96 177 2.6 7.0 0.05 0.42 0.28 27 1006.3
20260901211152 95 210 2.6 7.8 0.03 0.40 0.25 28 1007.0
20260901204151 94 164 0.9 5.2 0.03 0.39 0.23 30 1007.7
20260901201150 94 190 3.5 7.8 0.03 0.39 0.21 32 1008.3
20260901194149 94 176 1.7 1.7 0.03 0.39 0.19 31 1008.5
20260901191149 93 182 3.5 3.5 0.02 0.40 0.17 31 1009.1
20260901184147 92 176 2.6 2.6 0.03 0.40 0.15 34 1009.7
20260901181146 92 176 2.6 2.6 0.03 0.40 0.13 35 1009.9
20260901174145 90 184 2.6 2.6 0.03 0.39 0.11 39 1010.6
20260901171145 88 200 3.5 3.5 0.03 0.40 0.10 42 1011.2
20260901164143 86 189 2.6 2.6 0.04 0.42 0.08 44 1011.7
20260901161142 84 203 3.5 3.5 0.03 0.43 0.05 47 1011.9
20260901154141 83 185 2.6 2.6 0.03 0.43 0.03 49 1012.1
20260901151140 81 199 2.6 2.6 0.02 0.43 0.02 52 1012.7
20260901144139 79 184 2.6 2.6 0.00 0.41 0.00 56 1013.1
20260901141138 76 172 1.7 1.7 0.00 0.41 0.00 60 1013.7
20260901134137 73 161 0.0 0.0 0.00 0.41 0.00 64 1014.2
20260901131136 71 217 0.9 0.9 0.00 0.41 0.00 68 1014.6
20260901124136 71 222 1.7 1.7 0.00 0.41 0.00 68 1014.4
20260901121134 71 192 1.7 1.7 0.00 0.41 0.00 68 1014.2
20260901114133 71 183 0.0 0.0 0.00 0.41 0.00 68 1014.1
20260901111132 72 182 0.9 1.7 0.00 0.41 0.00 66 1013.8
20260901104131 73 167 0.9 0.9 0.00 0.41 0.00 63 1013.4
20260901101130 74 174 0.9 0.9 0.00 0.41 0.00 61 1013.1
20260901094129 75 169 0.9 1.7 0.00 0.41 0.00 58 1012.9
20260901091128 74 175 0.9 0.9 0.00 0.41 0.00 59 1013.0
20260901084127 73 183 0.0 0.0 0.00 0.41 0.00 58 1013.0
20260901081126 73 186 0.0 0.0 0.00 0.41 0.00 57 1013.1
20260901074125 73 323 0.0 0.0 0.00 0.41 0.00 56 1012.8
20260901071124 74 66 0.0 0.0 0.00 0.41 0.00 55 1012.7
20260901064123 74 206 0.0 0.0 0.00 0.41 0.00 53 1012.6